Weather History for EIME - February, 2014

Change the Weather History Date:

Tuesday, February 11, 2014

  Actual Average (EIDW) Record (EIDW)
Temperature  
Mean Temperature 36 °F -  
Max Temperature 39 °F 46 °F 55 °F (1998)
Min Temperature 32 °F 35 °F 28 °F (2008)
Degree Days  
Heating Degree Days 30    
Moisture  
Dew Point 33 °F    
Average Humidity 86    
Maximum Humidity 100    
Minimum Humidity 70    
Precipitation  
Precipitation 0.03 in - - ()
Sea Level Pressure  
Sea Level Pressure 29.19 in    
Wind  
Wind Speed 17 mph ()    
Max Wind Speed 28 mph    
Max Gust Speed 39 mph    
Visibility 8.7 miles    
Events Rain , Snow    
Averages and records for this station are not official NWS values.
T = Trace of Precipitation, MM = Missing Value Source: Averaged Metar Reports

Daily Weather History Graph

Daily Weather History Graph

Search for Another Location

Airport or City:

Trip Planner

Search our weather history database for the weather conditions in past years. The results will help you decide how hot, cold, wet, or windy it might be!

Date:

Astronomy

Feb. 11, 2014 Rise Set
Actual Time 7:52 AM GMT 5:28 PM GMT
Civil Twilight 7:15 AM GMT 6:05 PM GMT
Nautical Twilight 6:34 AM GMT 6:46 PM GMT
Astronomical Twilight 5:54 AM GMT 7:26 PM GMT
Moon 2:24 PM GMT (2/11) 5:32 AM GMT (2/11)
Length of Visible Light 10h 49m
Length of Day
9h 36m
Waxing Gibbous, 89% of the Moon is Illuminated
Feb 11
Waxing Gibbous
Feb 14
Full
Feb 22
Last Quarter
Mar 1
New
Mar 8
First Quarter

Hourly Weather History & Observations

Time (GMT) Temp. Windchill Dew Point Humidity Pressure Visibility Wind Dir Wind Speed Gust Speed Precip Events Conditions
12:00 AM 41 °F - 35 °F 70% 29.24 in 12 mi SSE 15.7 mph - - Rain Light Rain
12:00 AM 41.0 °F 32.8 °F 33.8 °F 76% 29.21 in 6.2 mi SSE 16.1 mph - N/A Rain Light Rain
1:00 AM 40 °F - 36 °F 79% 29.18 in 10 mi South 17.9 mph - - Rain Light Rain
1:00 AM 39.2 °F 29.8 °F 35.6 °F 87% 29.15 in 6.2 mi South 18.4 mph 29.9 mph N/A Rain Light Rain
2:00 AM 40 °F - 36 °F 82% 29.10 in 7 mi South 22.4 mph - - Rain Light Rain
2:00 AM 39.2 °F 27.8 °F 35.6 °F 87% 29.09 in 6.2 mi South 27.6 mph - N/A Rain Light Rain
3:00 AM 37 °F - 36 °F 92% 29.11 in 5 mi WSW 13.4 mph - - Rain Rain
3:00 AM 37.4 °F 29.3 °F 35.6 °F 93% 29.09 in 5.0 mi WSW 12.7 mph - N/A Rain Rain
4:00 AM 37 °F - 36 °F 93% 29.08 in 12 mi SW 15.7 mph - - Rain Light Rain
4:00 AM 37.4 °F 28.5 °F 35.6 °F 93% 29.06 in 6.2 mi WSW 15.0 mph - N/A   Mostly Cloudy
5:00 AM 38 °F - 35 °F 85% 29.09 in 19 mi WSW 20.1 mph - -   Partly Cloudy
5:00 AM 37.4 °F 27.5 °F 35.6 °F 93% 29.06 in 6.2 mi WSW 18.4 mph - N/A   Mostly Cloudy
6:00 AM 37 °F - 34 °F 84% 29.12 in 19 mi SW 15.7 mph - -   Partly Cloudy
6:00 AM 37.4 °F 28.2 °F 33.8 °F 87% 29.09 in 6.2 mi SW 16.1 mph - N/A   Mostly Cloudy
7:00 AM 36 °F - 33 °F 82% 29.13 in 19 mi WSW 15.7 mph - -   Scattered Clouds
7:00 AM 35.6 °F 26.6 °F 32.0 °F 87% 29.09 in 6.2 mi SW 13.8 mph - N/A   Scattered Clouds
7:30 AM 35.6 °F 25.5 °F 32.0 °F 87% 29.12 in 6.2 mi SW 17.3 mph - N/A   Scattered Clouds
8:00 AM 34 °F - 31 °F 84% 29.15 in 19 mi SW 15.7 mph - -   Scattered Clouds
8:00 AM 33.8 °F 23.9 °F 30.2 °F 87% 29.12 in 6.2 mi SW 15.0 mph - N/A   Scattered Clouds
8:30 AM 33.8 °F 23.9 °F 30.2 °F 87% 29.12 in 6.2 mi SW 15.0 mph - N/A   Scattered Clouds
9:00 AM 35 °F - 31 °F 80% 29.17 in 22 mi SW 17.9 mph - -   Partly Cloudy
9:00 AM 33.8 °F 22.5 °F 32.0 °F 93% 29.15 in 6.2 mi SW 19.6 mph - N/A   Scattered Clouds
9:30 AM 35.6 °F 25.5 °F 32.0 °F 87% 29.15 in 6.2 mi SW 17.3 mph - N/A   Scattered Clouds
10:00 AM 36 °F - 32 °F 80% 29.18 in 25 mi SW 20.1 mph - -   Partly Cloudy
10:00 AM 35.6 °F 24.8 °F 32.0 °F 87% 29.15 in 6.2 mi SW 19.6 mph - N/A   Scattered Clouds
10:30 AM 37.4 °F 26.9 °F 32.0 °F 81% 29.15 in 6.2 mi SW 20.7 mph - N/A   Scattered Clouds
11:00 AM 38 °F - 33 °F 74% 29.18 in 25 mi SW 17.9 mph - -   Partly Cloudy
11:00 AM 39.2 °F 29.8 °F 33.8 °F 81% 29.15 in 6.2 mi SW 18.4 mph - N/A   Scattered Clouds
11:30 AM 39.2 °F 29.3 °F 33.8 °F 81% 29.18 in 6.2 mi SW 20.7 mph - N/A   Scattered Clouds
12:00 PM 38 °F - 32 °F 71% 29.20 in 25 mi SW 20.1 mph - -   Mostly Cloudy
12:00 PM 39.2 °F 29.6 °F 32.0 °F 75% 29.18 in 6.2 mi SW 19.6 mph 32.2 mph N/A   Mostly Cloudy
12:30 PM 39.2 °F 29.6 °F 32.0 °F 75% 29.18 in 6.2 mi SW 19.6 mph - N/A   Scattered Clouds
1:00 PM 37 °F - 33 °F 78% 29.20 in 10 mi SW 17.9 mph - - Snow Light Snow Showers
1:00 PM 35.6 °F 24.8 °F 33.8 °F 93% 29.18 in 6.2 mi SW 19.6 mph - N/A Rain Light Rain Showers
1:30 PM 35.6 °F 25.9 °F 33.8 °F 93% 29.18 in 6.2 mi SW 16.1 mph - N/A   Mostly Cloudy
2:00 PM 35 °F - 33 °F 89% 29.21 in 7 mi SW 22.4 mph - - Snow Light Snow Showers
2:00 PM 35.6 °F 24.5 °F 32.0 °F 87% 29.18 in 6.2 mi SW 20.7 mph 39.1 mph N/A   Mostly Cloudy
2:30 PM 37.4 °F 25.4 °F 32.0 °F 81% 29.18 in 6.2 mi SW 27.6 mph - N/A   Scattered Clouds
3:00 PM 37 °F - 31 °F 73% 29.20 in 25 mi SW 22.4 mph - -   Partly Cloudy
3:00 PM 37.4 °F 26.4 °F 30.2 °F 75% 29.18 in 6.2 mi SW 23.0 mph 38.0 mph N/A   Scattered Clouds
3:30 PM 32.0 °F 19.2 °F 30.2 °F 93% 29.18 in 3.1 mi WSW 23.0 mph 35.7 mph N/A Snow Light Snow
4:00 PM 34 °F - 30 °F 81% 29.23 in 25 mi SW 24.6 mph - - Snow Light Snow
4:00 PM 33.8 °F 21.3 °F 30.2 °F 87% 29.21 in 6.2 mi SW 24.2 mph 35.7 mph N/A   Mostly Cloudy
5:00 PM 32 °F - 31 °F 95% 29.25 in 7 mi SW 22.4 mph - - Snow Light Snow Showers
5:00 PM 32.0 °F 19.5 °F 32.0 °F 100% 29.21 in 6.2 mi SW 21.9 mph 36.8 mph N/A Snow Light Snow Showers
6:00 PM 32 °F - 31 °F 93% 29.28 in 19 mi SW 15.7 mph - - Snow Light Snow Showers
6:00 PM 32.0 °F 21.2 °F 30.2 °F 93% 29.24 in 6.2 mi SW 16.1 mph 28.8 mph N/A   Scattered Clouds
7:00 PM 33 °F - 30 °F 85% 29.31 in 16 mi SSW 15.7 mph - - Snow Light Snow Showers
7:00 PM 32.0 °F 21.2 °F 30.2 °F 93% 29.27 in 6.2 mi SSW 16.1 mph 27.6 mph N/A   Mostly Cloudy
8:00 PM 33 °F - 31 °F 91% 29.32 in 16 mi SSW 17.9 mph - - Snow Light Snow Showers
8:00 PM 33.8 °F 23.2 °F 30.2 °F 87% 29.30 in 6.2 mi SSW 17.3 mph - N/A   Mostly Cloudy
9:00 PM 33 °F - 31 °F 92% 29.32 in 7 mi SW 15.7 mph - - Snow Light Snow Showers
9:00 PM 33.8 °F 23.5 °F 32.0 °F 93% 29.30 in 6.2 mi SW 16.1 mph 35.7 mph N/A Rain , Snow Light Snow Showers
10:00 PM 33 °F - 32 °F 92% 29.32 in 19 mi SSW 20.1 mph - - Snow Light Snow Showers
10:00 PM 32.0 °F 20.1 °F 32.0 °F 100% 29.30 in 6.2 mi SSW 19.6 mph - N/A   Scattered Clouds
11:00 PM 33 °F - 31 °F 91% 29.33 in 19 mi SSW 20.1 mph - -   Partly Cloudy
11:00 PM 33.8 °F 22.8 °F 32.0 °F 93% 29.30 in 6.2 mi SSW 18.4 mph 31.1 mph N/A   Mostly Cloudy